TimeMDT,TemperatureF,Dew PointF,Humidity,Sea Level PressureIn,VisibilityMPH,Wind Direction,Wind SpeedMPH,Gust SpeedMPH,PrecipitationIn,Events,Conditions,WindDirDegrees,DateUTC
12:53 AM,39.9,23.0,51,30.12,10.0,WSW,4.6,-,N/A,,Clear,240,2013-03-12 06:53:00
1:53 AM,43.0,25.0,49,30.11,10.0,SW,3.5,-,N/A,,Clear,220,2013-03-12 07:53:00
2:53 AM,43.0,26.1,51,30.11,10.0,SW,4.6,-,N/A,,Clear,230,2013-03-12 08:53:00
3:53 AM,42.1,26.1,53,30.11,10.0,WSW,5.8,-,N/A,,Clear,250,2013-03-12 09:53:00
4:53 AM,42.1,26.1,53,30.12,10.0,WSW,6.9,-,N/A,,Clear,250,2013-03-12 10:53:00
5:53 AM,37.9,25.0,60,30.15,10.0,Calm,Calm,-,N/A,,Clear,0,2013-03-12 11:53:00
6:53 AM,39.9,25.0,55,30.17,10.0,WSW,3.5,-,N/A,,Clear,250,2013-03-12 12:53:00
7:53 AM,34.0,23.0,64,30.20,10.0,Calm,Calm,-,N/A,,Clear,0,2013-03-12 13:53:00
8:53 AM,41.0,26.1,55,30.22,10.0,Calm,Calm,-,N/A,,Clear,0,2013-03-12 14:53:00
9:53 AM,46.9,27.0,46,30.20,10.0,Variable,4.6,-,N/A,,Clear,0,2013-03-12 15:53:00
10:53 AM,53.1,27.0,37,30.21,10.0,NW,8.1,17.3,N/A,,Clear,320,2013-03-12 16:53:00
11:53 AM,55.0,27.0,34,30.20,10.0,WNW,11.5,23.0,N/A,,Clear,300,2013-03-12 17:53:00
12:53 PM,57.0,25.0,29,30.20,10.0,NW,8.1,-,N/A,,Clear,320,2013-03-12 18:53:00
1:53 PM,57.9,25.0,28,30.17,10.0,Variable,6.9,17.3,N/A,,Clear,0,2013-03-12 19:53:00
2:53 PM,59.0,25.0,27,30.16,10.0,NNW,6.9,16.1,N/A,,Clear,340,2013-03-12 20:53:00
3:53 PM,61.0,25.0,25,30.13,10.0,Variable,5.8,-,N/A,,Clear,0,2013-03-12 21:53:00
4:53 PM,60.1,25.0,26,30.13,10.0,East,3.5,-,N/A,,Clear,80,2013-03-12 22:53:00
5:53 PM,60.1,24.1,25,30.13,10.0,Calm,Calm,-,N/A,,Clear,0,2013-03-12 23:53:00
6:53 PM,57.9,24.1,27,30.14,10.0,Calm,Calm,-,N/A,,Clear,0,2013-03-13 00:53:00
7:53 PM,53.1,23.0,31,30.19,10.0,Calm,Calm,-,N/A,,Clear,0,2013-03-13 01:53:00
8:53 PM,48.0,21.9,36,30.19,10.0,WSW,3.5,-,N/A,,Clear,250,2013-03-13 02:53:00
9:53 PM,45.0,23.0,42,30.21,10.0,SW,4.6,-,N/A,,Clear,230,2013-03-13 03:53:00
10:53 PM,46.0,24.1,42,30.20,10.0,Calm,Calm,-,N/A,,Clear,0,2013-03-13 04:53:00
11:53 PM,42.1,23.0,47,30.21,10.0,Calm,Calm,-,N/A,,Clear,0,2013-03-13 05:53:00